📊 Raw Sensor Data

Showing records 49076 to 49100 of 85,113 total

ID Distance (ft) Battery V Battery A Int Temp (°F) Int Humid (%) Ext Temp (°F) Solar V RSSI SNR Time Stamp
36050 -- 4.03 -5 56 40 59 0.10 -83 8 03/26/2025 02:15 AM
36049 -- 4.03 -5 57 40 59 0.00 -84 8 03/26/2025 02:01 AM
36048 -- 3.98 -5 56 41 60 0.00 -83 8 03/26/2025 01:45 AM
36047 -- 3.98 -5 55 42 56 0.00 -82 7 03/26/2025 01:30 AM
36046 -- 3.98 -5 56 42 57 0.00 -83 8 03/26/2025 01:15 AM
36045 -- 4.03 -5 57 41 55 0.10 -84 6 03/26/2025 01:00 AM
36044 -- 4.03 -5 59 40 61 0.00 -82 8 03/26/2025 12:45 AM
36043 -- 4.03 -5 60 40 62 0.00 -83 8 03/26/2025 12:30 AM
36042 -- 4.03 -5 60 40 62 0.00 -82 8 03/26/2025 12:15 AM
36041 -- 3.98 -5 60 40 62 0.00 -82 7 03/26/2025 12:01 AM
36040 -- 3.98 -5 61 40 62 0.00 -82 8 03/25/2025 11:45 PM
36039 -- 3.98 -5 59 41 64 0.00 -81 8 03/25/2025 11:30 PM
36038 -- 3.98 -5 59 41 60 0.00 -85 8 03/25/2025 11:15 PM
36037 -- 4.04 -5 59 41 60 0.00 -86 7 03/25/2025 11:01 PM
36036 -- 3.99 -5 60 41 61 0.00 -88 6 03/25/2025 10:45 PM
36035 15.1 3.99 -18 60 42 61 0.00 -86 6 03/25/2025 10:30 PM
36034 15.2 3.99 -5 61 42 64 0.00 -87 7 03/25/2025 10:15 PM
36033 -- 3.99 -5 62 42 62 0.00 -86 6 03/25/2025 10:00 PM
36032 15.2 4.04 -5 62 42 64 0.10 -82 7 03/25/2025 09:45 PM
36031 -- 4.04 -5 63 43 65 0.00 -85 7 03/25/2025 09:30 PM
36030 -- 4.04 -5 63 44 66 0.00 -84 8 03/25/2025 09:15 PM
36029 -- 4.05 -5 64 44 65 0.00 -84 8 03/25/2025 09:00 PM
36028 -- 4.05 -5 65 45 67 0.00 -83 8 03/25/2025 08:45 PM
36027 -- 4.05 -5 67 45 67 0.00 -84 7 03/25/2025 08:30 PM
36026 -- 4.00 -5 69 45 68 0.00 -84 8 03/25/2025 08:15 PM